�N����,�����b,���ԉ��x,���Ԏ��x,��󒲎�,����,�����W
2005/2/1,0:00:00,19.2,39.9,11.7,7.2,18
2005/2/1,0:15:00,19.2,40.1,11.7,7.4,18
2005/2/1,0:30:00,19.1,40.1,11.6,7.5,18
2005/2/1,0:45:00,19,40.3,11.6,7.6,17.9
2005/2/1,1:00:00,19,40,11.6,7.8,17.8
2005/2/1,1:15:00,18.9,39.8,11.6,7.9,17.8
2005/2/1,1:30:00,18.9,39.9,11.6,8,17.7
2005/2/1,1:45:00,18.8,39.7,11.6,8.2,17.6
2005/2/1,2:00:00,18.8,39.8,11.6,8.3,17.6
2005/2/1,2:15:00,18.7,39.7,11.5,8.4,17.5
2005/2/1,2:30:00,18.7,39.7,11.5,8.5,17.4
2005/2/1,2:45:00,18.6,39.7,11.5,8.6,17.3
2005/2/1,3:00:00,18.6,39.8,11.4,8.8,17.3
2005/2/1,3:15:00,18.5,39.7,11.4,8.9,17.2
2005/2/1,3:30:00,18.5,39.6,11.4,9,17.1
2005/2/1,3:45:00,18.6,39.5,11.4,9.1,17.1
2005/2/1,4:00:00,18.6,39.4,11.4,9.2,17.1
2005/2/1,4:15:00,18.6,39.3,11.3,9.3,17.1
2005/2/1,4:30:00,18.6,39.2,11.3,9.4,17.1
2005/2/1,4:45:00,18.6,39,11.3,9.5,17.2
2005/2/1,5:00:00,18.7,39,11.2,9.6,17.2
2005/2/1,5:15:00,18.8,38.7,11.2,9.7,17.2
2005/2/1,5:30:00,18.9,38.6,11.3,9.8,17.2
2005/2/1,5:45:00,19,38.5,11.3,9.9,17.3
2005/2/1,6:00:00,19.1,38.3,11.3,10,17.4
2005/2/1,6:15:00,19.2,38.2,11.3,10.1,17.4
2005/2/1,6:30:00,19.3,38.1,11.2,10.2,17.5
2005/2/1,6:45:00,19.4,37.9,11.2,10.3,17.6
2005/2/1,7:00:00,19.4,38.1,11.2,10.4,17.6
2005/2/1,7:15:00,19.1,39.3,11.2,10.5,17.7
2005/2/1,7:30:00,19.3,41.7,11.2,10.6,17.7
2005/2/1,7:45:00,19.4,42.3,11.2,10.7,17.9
2005/2/1,8:00:00,19.4,43,11.2,10.8,17.9
2005/2/1,8:15:00,19.3,43.5,11.3,5.5,17.9
2005/2/1,8:30:00,19.3,43.7,11.3,5.5,17.9
2005/2/1,8:45:00,19.3,43.7,11.3,5.7,17.9
2005/2/1,9:00:00,19.3,43.6,11.3,5.8,17.8
2005/2/1,9:15:00,19.3,43.5,11.3,5.9,17.8
2005/2/1,9:30:00,19.4,43.2,11.3,6.1,17.8
2005/2/1,9:45:00,19.3,43.1,11.3,6.2,17.8
2005/2/1,10:00:00,19.4,42.7,11.3,6.4,17.8
2005/2/1,10:15:00,19.4,42.5,11.3,6.5,17.8
2005/2/1,10:30:00,19.4,42.2,11.3,6.6,17.8
2005/2/1,10:45:00,19.4,41.8,11.3,6.8,17.8
2005/2/1,11:00:00,19.5,41.5,11.3,6.9,17.8
2005/2/1,11:15:00,19.5,41.2,11.3,7.1,17.8
2005/2/1,11:30:00,19.4,41.1,11.3,7.2,17.8
2005/2/1,11:45:00,19.4,40.8,11.3,7.3,17.8
2005/2/1,12:00:00,19.4,40.6,11.3,7.5,17.8
2005/2/1,12:15:00,19.5,40.2,11.3,7.6,17.8
2005/2/1,12:30:00,19.5,40.1,11.3,7.7,17.8
2005/2/1,12:45:00,19.4,40.1,11.3,7.8,17.8
2005/2/1,13:00:00,19.4,39.9,11.3,8,17.8
2005/2/1,13:15:00,19.4,39.8,11.3,8.1,17.8
2005/2/1,13:30:00,19.3,39.7,11.3,8.2,17.7
2005/2/1,13:45:00,19.3,39.5,11.3,8.3,17.7
2005/2/1,14:00:00,19.3,39.4,11.3,8.5,17.7
2005/2/1,14:15:00,19.2,39.4,11.3,8.6,17.7
2005/2/1,14:30:00,19.2,39.2,11.3,8.7,17.6
2005/2/1,14:45:00,19.2,39.1,11.3,8.8,17.6
2005/2/1,15:00:00,19.1,39.1,11.3,8.9,17.6
2005/2/1,15:15:00,19.1,39.1,11.3,9,17.6
2005/2/1,15:30:00,19,39.1,11.2,9.1,17.5
2005/2/1,15:45:00,19,39,11.2,9.2,17.4
2005/2/1,16:00:00,19,38.9,11.2,9.3,17.4
2005/2/1,16:15:00,18.9,39,11.2,9.4,17.4
2005/2/1,16:30:00,18.8,38.9,11.2,9.5,17.3
2005/2/1,16:45:00,18.8,38.9,11.2,9.6,17.2
2005/2/1,17:00:00,18.7,38.9,11.2,9.7,17.2
2005/2/1,17:15:00,18.7,38.8,11.2,9.8,17.1
2005/2/1,17:30:00,18.7,39.1,11.2,9.9,16.9
2005/2/1,17:45:00,18.6,39.2,11.1,10,16.9
2005/2/1,18:00:00,18.6,39.1,11.1,10.1,16.9
2005/2/1,18:15:00,18.5,39,11.1,10.2,16.9
2005/2/1,18:30:00,18.5,39,11.1,10.3,16.9
2005/2/1,18:45:00,18.4,39,11.1,10.4,16.9
2005/2/1,19:00:00,18.4,38.9,11.1,10.5,16.8
2005/2/1,19:15:00,18.3,38.9,11.1,10.6,16.8
2005/2/1,19:30:00,18.3,38.9,11,10.7,16.7
2005/2/1,19:45:00,18.2,38.9,11,10.7,16.7
2005/2/1,20:00:00,18.2,38.9,11,10.8,16.7
2005/2/1,20:15:00,18.1,39,11,7.1,16.9
2005/2/1,20:30:00,18.1,38.7,11,7.2,16.9
2005/2/1,20:45:00,18.1,38.7,10.9,7.4,16.7
2005/2/1,21:00:00,18,38.6,10.9,7.5,16.8
2005/2/1,21:15:00,18,38.5,10.8,7.7,16.7
2005/2/1,21:30:00,18,38.7,10.8,7.8,16.8
2005/2/1,21:45:00,18,38.7,10.8,7.9,16.7
2005/2/1,22:00:00,17.9,38.8,10.8,8,18
2005/2/1,22:15:00,17.9,39.1,10.7,8.1,18.1
2005/2/1,22:30:00,17.9,40.5,10.7,8.2,17.5
2005/2/1,22:45:00,17.9,39.9,10.7,7.8,17.2
2005/2/1,23:00:00,17.8,40.3,10.6,7.8,17
2005/2/1,23:15:00,17.9,40.6,10.6,7.9,16.8
2005/2/1,23:30:00,17.8,41.6,10.6,8,17.1
2005/2/1,23:45:00,18,42,10.5,8.1,17
2005/2/2,0:00:00,18,41.8,10.5,8.2,16.9
2005/2/2,0:15:00,17.9,41.3,10.4,8.2,16.7
2005/2/2,0:30:00,17.9,41,10.4,8.3,16.7
2005/2/2,0:45:00,17.8,40.7,10.4,8.4,16.6
2005/2/2,1:00:00,17.7,40.7,10.4,8.5,16.6
2005/2/2,1:15:00,17.7,40.7,10.3,8.6,16.6
2005/2/2,1:30:00,17.6,40.5,10.3,8.7,16.5
2005/2/2,1:45:00,17.6,40.3,10.3,8.8,16.4
2005/2/2,2:00:00,17.5,40.2,10.2,8.9,16.3
2005/2/2,2:15:00,17.5,40.1,10.2,8.9,16.2
2005/2/2,2:30:00,17.4,40.1,10.2,9,16.1
2005/2/2,2:45:00,17.4,40,10.2,9.1,16.1
2005/2/2,3:00:00,17.3,39.9,10.2,9.2,16.1
2005/2/2,3:15:00,17.3,39.8,10.2,9.3,16
2005/2/2,3:30:00,17.3,39.8,10.2,9.3,15.9
2005/2/2,3:45:00,17.3,39.7,10.2,9.4,15.9
2005/2/2,4:00:00,17.4,39.5,10.2,9.5,15.9
2005/2/2,4:15:00,17.4,39.4,10.2,9.6,15.9
2005/2/2,4:30:00,17.5,39.2,10.1,9.6,16
2005/2/2,4:45:00,17.5,39,10.1,9.7,16.1
2005/2/2,5:00:00,17.5,39,10.1,9.8,16.2
2005/2/2,5:15:00,17.7,38.8,10.1,6.8,16.4
2005/2/2,5:30:00,17.8,38.7,10.1,7,16.7
2005/2/2,5:45:00,18,38.6,10.1,7.2,16.7
2005/2/2,6:00:00,18,38.6,10.1,7.3,16.9
2005/2/2,6:15:00,18.2,38.4,10.1,7.4,16.8
2005/2/2,6:30:00,18.3,38.3,10.1,4.7,16.8
2005/2/2,6:45:00,18.4,38.2,10.1,4.7,16.9
2005/2/2,7:00:00,18.5,37.9,10.1,4.8,17
2005/2/2,7:15:00,18.5,39.3,10.1,4.9,17.1
2005/2/2,7:30:00,18.5,40,10.1,5.2,17.2
2005/2/2,7:45:00,18.8,39.8,10.1,5.3,17.2
2005/2/2,8:00:00,18.8,39.8,10.1,5.4,17.3
2005/2/2,8:15:00,18.9,39.4,10.2,5.5,17.4
2005/2/2,8:30:00,18.9,41.8,10.2,5.6,17.5
2005/2/2,8:45:00,18.9,42.1,10.2,5.7,17.6
2005/2/2,9:00:00,19.6,41.4,10.2,5.9,17.8
2005/2/2,9:15:00,19.9,41,10.3,6,18.1
2005/2/2,9:30:00,19.5,42.5,10.3,6.2,18.2
2005/2/2,9:45:00,19.4,42.7,10.3,6.3,18.1
2005/2/2,10:00:00,20.2,41.3,10.4,6.4,18.3
2005/2/2,10:15:00,19.8,42.3,10.4,6.6,18.4
2005/2/2,10:30:00,20.7,40.4,10.5,6.7,18.6
2005/2/2,10:45:00,20.5,40.9,10.6,6.9,18.9
2005/2/2,11:00:00,20.2,41.4,10.6,7,18.9
2005/2/2,11:15:00,21,39.7,10.7,7.2,19
2005/2/2,11:30:00,20.8,40.1,10.7,7.3,19.2
2005/2/2,11:45:00,20.5,40.4,10.8,7.5,19.1
2005/2/2,12:00:00,20.4,40.6,10.8,7.6,19.1
2005/2/2,12:15:00,20.3,40.7,10.9,7.8,19
2005/2/2,12:30:00,20.3,40.4,10.9,6.3,18.9
2005/2/2,12:45:00,20.3,40.2,10.9,6.5,19.1
2005/2/2,13:00:00,20.3,39.9,11,6.6,19.1
2005/2/2,13:15:00,20.3,39.9,11,6.7,19.1
2005/2/2,13:30:00,20.3,39.7,11,6.9,19
2005/2/2,13:45:00,20.4,39.5,11.1,7,19
2005/2/2,14:00:00,20.2,39.6,11.1,7.1,19
2005/2/2,14:15:00,20.2,39.4,11.1,4.9,18.9
2005/2/2,14:30:00,20.2,39.4,11.2,5,18.9
2005/2/2,14:45:00,20.3,39.3,11.2,5.1,18.8
2005/2/2,15:00:00,20,39.1,11.3,5.2,18.8
2005/2/2,15:15:00,20.1,38.9,11.3,5.3,18.8
2005/2/2,15:30:00,20,39,11.3,5.5,18.8
2005/2/2,15:45:00,20,39,11.3,5.6,18.7
2005/2/2,16:00:00,19.9,39.3,11.3,5.8,18.6
2005/2/2,16:15:00,19.8,39.3,11.3,6,18.6
2005/2/2,16:30:00,19.8,39.2,11.3,6.2,18.5
2005/2/2,16:45:00,19.8,39.1,11.3,5.7,18.4
2005/2/2,17:00:00,19.7,39.3,11.3,5.7,18.4
2005/2/2,17:15:00,19.7,39.4,11.3,5.9,18.4
2005/2/2,17:30:00,19.6,39.5,11.3,6,18.4
2005/2/2,17:45:00,19.6,39.5,11.4,6.1,18.3
2005/2/2,18:00:00,19.6,39.6,11.4,6.2,18.3
2005/2/2,18:15:00,19.5,39.8,11.4,5.1,19
2005/2/2,18:30:00,19.4,39.8,11.3,5.1,20.4
2005/2/2,18:45:00,19.5,39.9,11.3,5.3,20.4
2005/2/2,19:00:00,19.4,40,11.3,5.4,19.8
2005/2/2,19:15:00,19.4,40.3,11.3,5.6,19.4
2005/2/2,19:30:00,19.4,40.3,11.3,5.7,18.9
2005/2/2,19:45:00,19.5,40.4,11.3,5.8,19.6
2005/2/2,20:00:00,19.5,40.6,11.3,6,19.4
2005/2/2,20:15:00,19.5,40.5,11.3,6.2,18.8
2005/2/2,20:30:00,19.4,40.7,11.3,6.3,18.7
2005/2/2,20:45:00,19.3,40.9,11.3,6.5,18.5
2005/2/2,21:00:00,19.2,40.9,11.3,6.6,18.3
2005/2/2,21:15:00,19.3,40.7,11.3,6.6,18.2
2005/2/2,21:30:00,19.2,40.7,11.3,6.8,18.1
2005/2/2,21:45:00,19.2,40.6,11.3,5.6,18
2005/2/2,22:00:00,19.2,40.7,11.3,5.7,18
2005/2/2,22:15:00,19.1,40.6,11.3,5.8,17.9
2005/2/2,22:30:00,19.1,41.2,11.2,5.9,17.8
2005/2/2,22:45:00,19,41.3,11.2,5.4,17.7
2005/2/2,23:00:00,19,40.9,11.1,5.5,17.5
2005/2/2,23:15:00,19,40.8,11.1,5.6,17.5
2005/2/2,23:30:00,18.9,40.5,11.1,5.7,17.5
2005/2/2,23:45:00,18.8,40.4,11.2,5.9,17.6
2005/2/3,0:00:00,18.8,40.3,11.2,6,17.6
2005/2/3,0:15:00,18.8,40.4,11.1,6.1,17.6
2005/2/3,0:30:00,18.8,40.5,11.1,6.3,17.7
2005/2/3,0:45:00,18.7,40.5,11.1,6.4,17.7
2005/2/3,1:00:00,18.7,40.4,11.1,6.5,17.6
2005/2/3,1:15:00,18.6,40.3,11.1,6.7,17.5
2005/2/3,1:30:00,18.6,40.3,11.1,6.8,17.4
2005/2/3,1:45:00,18.5,40.3,11.1,6.9,17.3
2005/2/3,2:00:00,18.5,40.2,11.1,7,17.3
2005/2/3,2:15:00,18.4,40.1,11.1,7.2,17.2
2005/2/3,2:30:00,18.3,40.2,11.1,7.3,17.1
2005/2/3,2:45:00,18.3,40.2,11,7.4,17
2005/2/3,3:00:00,18.3,40.1,11,7.6,17
2005/2/3,3:15:00,18.3,40,11,7.7,16.9
2005/2/3,3:30:00,18.3,39.8,11,7.8,16.9
2005/2/3,3:45:00,18.3,39.8,11,7.9,16.9
2005/2/3,4:00:00,18.3,39.7,11,8,16.9
2005/2/3,4:15:00,18.3,39.6,11,8.1,16.9
2005/2/3,4:30:00,18.3,39.5,10.9,8.2,16.9
2005/2/3,4:45:00,18.4,39.4,10.9,8.3,17
2005/2/3,5:00:00,18.4,39.4,10.9,8.4,17
2005/2/3,5:15:00,18.5,39.3,10.9,8.6,17.1
2005/2/3,5:30:00,18.6,39.2,10.9,6.3,17.2
2005/2/3,5:45:00,18.8,39,10.9,6.4,17.5
2005/2/3,6:00:00,18.9,38.9,10.9,6.6,17.8
2005/2/3,6:15:00,19,38.8,10.9,6.7,17.9
2005/2/3,6:30:00,19.1,38.7,10.9,5.2,17.8
2005/2/3,6:45:00,19.2,38.5,10.9,5.3,17.8
2005/2/3,7:00:00,19.2,38.7,10.9,5.4,17.8
2005/2/3,7:15:00,19.3,40.4,11,5.1,17.8
2005/2/3,7:30:00,19.5,40.4,11,5.1,18.2
2005/2/3,7:45:00,19.5,40.4,11,5.3,18.5
2005/2/3,8:00:00,19.4,40.5,10.9,4.4,19
2005/2/3,8:15:00,19.5,41.2,10.9,4.5,18.9
2005/2/3,8:30:00,19.5,42.6,11,4.6,18.8
2005/2/3,8:45:00,19.5,43.3,11,4.7,18.7
2005/2/3,9:00:00,19.6,43.7,11.1,4.8,18.6
2005/2/3,9:15:00,19.9,43.1,11.1,4.9,18.6
2005/2/3,9:30:00,20.4,42.5,11.2,5.1,18.8
2005/2/3,9:45:00,20.5,42.4,11.2,5.2,18.9
2005/2/3,10:00:00,21.1,41.3,11.2,5.4,19.2
2005/2/3,10:15:00,21.6,40.4,11.3,5.6,19.5
2005/2/3,10:30:00,21.3,40.8,11.3,5.7,19.7
2005/2/3,10:45:00,21.1,41,11.4,5.9,19.6
2005/2/3,11:00:00,21.1,40.9,11.4,6.1,19.6
2005/2/3,11:15:00,21,40.7,11.5,6.3,19.6
2005/2/3,11:30:00,21.1,40.4,11.5,6.4,19.5
2005/2/3,11:45:00,20.9,40.6,11.6,6.6,19.5
2005/2/3,12:00:00,21.1,39.8,11.6,6.8,19.4
2005/2/3,12:15:00,20.9,40.1,11.6,7,19.5
2005/2/3,12:30:00,20.9,39.8,11.7,7.1,19.4
2005/2/3,12:45:00,20.8,39.8,11.7,7.3,19.4
2005/2/3,13:00:00,20.7,39.7,11.8,7.4,19.3
2005/2/3,13:15:00,20.8,39.4,11.8,7.6,19.3
2005/2/3,13:30:00,20.9,39.1,11.8,7.7,19.4
2005/2/3,13:45:00,20.9,39.1,11.8,7.9,19.4
2005/2/3,14:00:00,20.8,39.1,11.9,8,19.4
2005/2/3,14:15:00,20.8,39,11.9,8.2,19.4
2005/2/3,14:30:00,20.7,38.9,11.9,8.3,19.3
2005/2/3,14:45:00,20.7,38.8,11.9,8.5,19.3
2005/2/3,15:00:00,20.7,38.7,12,8.6,19.3
2005/2/3,15:15:00,20.6,38.6,12,8.8,19.3
2005/2/3,15:30:00,20.5,38.6,12,8.9,19.2
2005/2/3,15:45:00,20.4,38.5,12,9,19.1
2005/2/3,16:00:00,20.4,38.5,12,9.1,19.1
2005/2/3,16:15:00,20.3,38.5,12,9.3,19.1
2005/2/3,16:30:00,20.2,38.6,12,9.4,19
2005/2/3,16:45:00,20.1,38.7,12,9.5,18.9
2005/2/3,17:00:00,20,38.7,12,9.6,18.9
2005/2/3,17:15:00,19.9,38.8,12,9.7,18.7
2005/2/3,17:30:00,19.9,38.9,12,9.8,18.6
2005/2/3,17:45:00,19.9,39,12,9.9,18.6
2005/2/3,18:00:00,19.8,39,11.9,10.1,18.6
2005/2/3,18:15:00,19.7,39,11.9,10.2,18.6
2005/2/3,18:30:00,19.6,38.8,11.9,10.3,18.5
2005/2/3,18:45:00,19.6,38.8,11.9,10.5,18.5
2005/2/3,19:00:00,19.5,38.6,11.9,10.6,18.4
2005/2/3,19:15:00,19.6,38.6,11.9,7.2,18.4
2005/2/3,19:30:00,19.6,38.6,11.9,7.4,18.3
2005/2/3,19:45:00,19.4,38.7,11.8,7.6,18.8
2005/2/3,20:00:00,19.4,38.8,11.8,5.6,21.1
2005/2/3,20:15:00,19.4,38.7,11.8,5.8,19.7
2005/2/3,20:30:00,19.4,38.7,11.7,5.9,18.8
2005/2/3,20:45:00,19.4,38.9,11.7,6,19.2
2005/2/3,21:00:00,19.4,39,11.6,6.6,18.9
2005/2/3,21:15:00,19.3,39.2,11.6,6.7,18.4
2005/2/3,21:30:00,19.3,39.5,11.5,6.8,18.3
2005/2/3,21:45:00,19.1,39.7,11.6,6.9,18.2
2005/2/3,22:00:00,19.4,39.6,11.6,7,18.1
2005/2/3,22:15:00,19.2,41.3,11.5,7.1,18
2005/2/3,22:30:00,19.2,41.1,11.5,7.3,17.9
2005/2/3,22:45:00,19.3,41.3,11.5,7.4,17.8
2005/2/3,23:00:00,19.2,40.6,11.5,7.5,17.9
2005/2/3,23:15:00,19.2,40.2,11.5,7.6,17.9
2005/2/3,23:30:00,19.1,39.9,11.5,7.8,17.9
2005/2/3,23:45:00,19.1,39.6,11.5,7.9,18
2005/2/4,0:00:00,19.1,39.7,11.4,8,18
2005/2/4,0:15:00,19,39.8,11.4,8.1,18.1
2005/2/4,0:30:00,19,39.8,11.4,8.3,18
2005/2/4,0:45:00,18.9,39.8,11.4,8.4,17.9
2005/2/4,1:00:00,18.9,39.7,11.4,8.5,17.8
2005/2/4,1:15:00,18.8,39.6,11.4,8.6,17.7
2005/2/4,1:30:00,18.8,39.5,11.4,8.7,17.6
2005/2/4,1:45:00,18.7,39.3,11.4,8.8,17.6
2005/2/4,2:00:00,18.7,39.2,11.3,8.9,17.6
2005/2/4,2:15:00,18.6,39.2,11.3,9,17.5
2005/2/4,2:30:00,18.6,39.1,11.3,9.1,17.5
2005/2/4,2:45:00,18.5,39,11.3,9.2,17.4
2005/2/4,3:00:00,18.5,38.9,11.3,9.3,17.4
2005/2/4,3:15:00,18.5,38.8,11.3,9.4,17.3
2005/2/4,3:30:00,18.5,38.7,11.3,9.5,17.3
2005/2/4,3:45:00,18.5,38.7,11.3,9.6,17.3
2005/2/4,4:00:00,18.5,38.7,11.3,9.7,17.3
2005/2/4,4:15:00,18.6,38.7,11.2,9.8,17.3
2005/2/4,4:30:00,18.6,38.6,11.2,9.9,17.4
2005/2/4,4:45:00,18.7,38.5,11.2,7,17.6
2005/2/4,5:00:00,18.8,38.5,11.2,7.2,17.8
2005/2/4,5:15:00,18.9,38.3,11.2,7.4,17.9
2005/2/4,5:30:00,19,38.3,11.2,7.5,17.8
2005/2/4,5:45:00,19.1,38.2,11.2,7.6,17.9
2005/2/4,6:00:00,19.1,38.1,11.2,7.7,17.9
2005/2/4,6:15:00,19.3,37.8,11.2,4.7,18
2005/2/4,6:30:00,19.4,37.7,11.2,4.7,18.1
2005/2/4,6:45:00,19.5,37.5,11.3,4.8,18.2
2005/2/4,7:00:00,19.6,37.2,11.3,4.9,18.2
2005/2/4,7:15:00,19.6,39.1,11.3,5,18.3
2005/2/4,7:30:00,19.7,40.4,11.3,5.3,18.4
2005/2/4,7:45:00,19.6,40.9,11.3,5.4,18.4
2005/2/4,8:00:00,19.7,42,11.4,5.5,18.5
2005/2/4,8:15:00,19.7,43.3,11.4,4.7,18.5
2005/2/4,8:30:00,19.8,43.7,11.4,4.7,18.6
2005/2/4,8:45:00,19.7,43.9,11.4,4.8,18.5
2005/2/4,9:00:00,19.8,43.8,11.5,4.9,18.5
2005/2/4,9:15:00,19.8,43.7,11.5,5,18.6
2005/2/4,9:30:00,19.9,43.6,11.5,5.2,18.6
2005/2/4,9:45:00,19.9,43.4,11.6,5.3,18.6
2005/2/4,10:00:00,19.9,43.2,11.6,5.5,18.6
2005/2/4,10:15:00,20,42.9,11.6,5.7,18.7
2005/2/4,10:30:00,20,42.6,11.6,5.8,18.7
2005/2/4,10:45:00,20.1,42.1,11.7,6,18.7
2005/2/4,11:00:00,20.1,41.9,11.7,6.2,18.8
2005/2/4,11:15:00,20.3,41.4,11.8,6.3,18.8
2005/2/4,11:30:00,20.2,41.3,11.8,6.5,18.8
2005/2/4,11:45:00,20.2,41,11.8,6.7,18.9
2005/2/4,12:00:00,20.4,40.7,11.8,6.8,18.9
2005/2/4,12:15:00,20.3,40.5,11.9,7,18.9
2005/2/4,12:30:00,20.3,40.3,11.9,7.2,18.9
2005/2/4,12:45:00,20.3,40.3,11.9,7.3,18.9
2005/2/4,13:00:00,20.3,40.1,11.9,7.4,18.9
2005/2/4,13:15:00,20.3,39.8,12,7.6,18.9
2005/2/4,13:30:00,20.3,39.7,12,7.7,18.9
2005/2/4,13:45:00,20.3,39.6,12,7.9,18.9
2005/2/4,14:00:00,20.4,39.4,12.1,8,18.9
2005/2/4,14:15:00,20.3,39.4,12.1,8.2,18.9
2005/2/4,14:30:00,20.2,39.3,12.1,8.3,18.9
2005/2/4,14:45:00,20.2,39.3,12.1,8.5,18.9
2005/2/4,15:00:00,20.2,39.3,12.1,8.6,18.9
2005/2/4,15:15:00,20.1,39.3,12.1,8.7,18.8
2005/2/4,15:30:00,20,39.3,12.1,8.9,18.8
2005/2/4,15:45:00,20,39.3,12.1,9,18.7
2005/2/4,16:00:00,19.9,39.3,12.1,9.1,18.7
2005/2/4,16:15:00,19.9,39.2,12.1,9.2,18.6
2005/2/4,16:30:00,19.8,39.1,12.1,9.3,18.6
2005/2/4,16:45:00,19.8,39.1,12.1,9.5,18.6
2005/2/4,17:00:00,19.8,39.1,12.1,9.6,18.5
2005/2/4,17:15:00,19.7,39.2,12.1,6.7,18.5
2005/2/4,17:30:00,19.8,39.4,12.1,7,18.3
2005/2/4,17:45:00,19.8,39.6,12.1,7.2,18.3
2005/2/4,18:00:00,19.7,39.8,12.1,7.4,18.3
2005/2/4,18:15:00,19.7,39.7,12.1,7.5,18.4
2005/2/4,18:30:00,19.7,39.7,12.1,7.6,18.4
2005/2/4,18:45:00,19.7,39.7,12.1,7.7,18.3
2005/2/4,19:00:00,19.6,39.7,12,7.9,18.3
2005/2/4,19:15:00,19.6,39.9,12,7.3,19.6
2005/2/4,19:30:00,19.5,39.8,12,5.7,23.9
2005/2/4,19:45:00,19.7,40,12,4.9,22.1
2005/2/4,20:00:00,19.7,40.4,12,4.9,21
2005/2/4,20:15:00,19.7,40.6,12,5,20.4
2005/2/4,20:30:00,19.6,40.5,12,5.1,19.4
2005/2/4,20:45:00,19.6,40.7,12,5.3,18.9
2005/2/4,21:00:00,19.6,41,11.9,5.8,18.7
2005/2/4,21:15:00,19.5,41.4,11.9,5.9,18.5
2005/2/4,21:30:00,19.4,41.2,12,5.9,18.3
2005/2/4,21:45:00,19.5,41.5,11.9,5.6,18.2
2005/2/4,22:00:00,19.4,42.5,11.9,5.9,18
2005/2/4,22:15:00,19.5,43,11.9,5.9,17.9
2005/2/4,22:30:00,19.5,43.1,11.9,6.1,18
2005/2/4,22:45:00,19.5,42.9,11.9,6.2,18.1
2005/2/4,23:00:00,19.4,42.6,11.9,6.3,18.1
2005/2/4,23:15:00,19.4,42,11.9,6.4,18
2005/2/4,23:30:00,19.3,41.6,11.9,6.6,18
2005/2/4,23:45:00,19.2,41.5,11.9,6.7,18
2005/2/5,0:00:00,19.3,41.5,11.8,6.8,18
2005/2/5,0:15:00,19.2,41.6,11.8,6.9,18.1
2005/2/5,0:30:00,19.2,41.6,11.8,7.1,18
2005/2/5,0:45:00,19.1,41.5,11.8,7.2,18
2005/2/5,1:00:00,19.1,41.3,11.8,7.3,18
2005/2/5,1:15:00,19,41.1,11.8,7.4,17.9
2005/2/5,1:30:00,18.9,41.1,11.7,7.6,17.9
2005/2/5,1:45:00,18.9,41,11.7,7.7,17.8
2005/2/5,2:00:00,18.8,40.9,11.6,7.8,17.8
2005/2/5,2:15:00,18.8,40.8,11.6,7.9,17.7
2005/2/5,2:30:00,18.7,40.8,11.6,8,17.6
2005/2/5,2:45:00,18.7,40.7,11.5,8.1,17.6
2005/2/5,3:00:00,18.6,40.7,11.5,8.2,17.5
2005/2/5,3:15:00,18.6,40.5,11.5,8.3,17.5
2005/2/5,3:30:00,18.6,40.4,11.5,8.4,17.4
2005/2/5,3:45:00,18.6,40.3,11.5,8.5,17.4
2005/2/5,4:00:00,18.6,40.2,11.4,8.6,17.4
2005/2/5,4:15:00,18.6,40.1,11.4,8.7,17.4
2005/2/5,4:30:00,18.6,40,11.4,8.8,17.4
2005/2/5,4:45:00,18.6,39.9,11.4,8.9,17.5
2005/2/5,5:00:00,18.6,39.8,11.3,9,17.5
2005/2/5,5:15:00,18.7,39.5,11.3,6.7,17.6
2005/2/5,5:30:00,18.8,39.3,11.3,6.9,17.6
2005/2/5,5:45:00,18.8,39.2,11.3,7,17.6
2005/2/5,6:00:00,18.9,39.1,11.2,7.1,17.7
2005/2/5,6:15:00,19,38.8,11.2,7.3,17.8
2005/2/5,6:30:00,19.1,38.6,11.3,7.4,17.8
2005/2/5,6:45:00,19.2,38.5,11.2,7.5,17.8
2005/2/5,7:00:00,19.3,38.2,11.2,7.6,17.9
2005/2/5,7:15:00,19.4,38.1,11.2,7.7,18
2005/2/5,7:30:00,19.5,38.1,11.2,7.8,18
2005/2/5,7:45:00,19.6,39.2,11.2,8,18.1
2005/2/5,8:00:00,19.7,39,11.2,6.2,18.2
2005/2/5,8:15:00,19.8,39,11.3,6.4,18.3
2005/2/5,8:30:00,19.8,39.1,11.3,5.2,18.3
2005/2/5,8:45:00,19.9,38.8,11.3,5.4,18.3
2005/2/5,9:00:00,20,39.1,11.4,5.5,18.5
2005/2/5,9:15:00,20.2,39.2,11.4,5.6,18.8
2005/2/5,9:30:00,20.2,39,11.4,5.8,19
2005/2/5,9:45:00,20.1,39.1,11.4,3.7,18.9
2005/2/5,10:00:00,19.9,39.4,11.5,4.2,18.9
2005/2/5,10:15:00,20.2,39.4,11.5,4.4,18.9
2005/2/5,10:30:00,20.4,39.3,11.5,4.3,18.9
2005/2/5,10:45:00,20.3,42.3,11.5,4.3,19
2005/2/5,11:00:00,20.3,43.2,11.6,4.3,19
2005/2/5,11:15:00,20.4,44,11.6,4.9,19
2005/2/5,11:30:00,20.2,44.2,11.6,5.1,19
2005/2/5,11:45:00,20.2,44.4,11.6,5.2,19
2005/2/5,12:00:00,20.2,44.5,11.7,5.3,19
2005/2/5,12:15:00,20.3,44.4,11.7,5.4,19
2005/2/5,12:30:00,20.2,44.4,11.7,5.6,19
2005/2/5,12:45:00,20.3,44.1,11.7,5.8,19.1
2005/2/5,13:00:00,20.2,44,11.8,5.9,19.1
2005/2/5,13:15:00,20.2,43.7,11.8,6.1,19
2005/2/5,13:30:00,20.2,43.6,11.8,6.2,19
2005/2/5,13:45:00,20.2,43.2,11.8,6.4,18.9
2005/2/5,14:00:00,20.1,43.2,11.8,6.5,19
2005/2/5,14:15:00,20,43,11.8,6.7,18.9
2005/2/5,14:30:00,20,42.7,11.8,6.8,18.8
2005/2/5,14:45:00,19.9,42.4,11.8,6.9,18.8
2005/2/5,15:00:00,19.9,42.2,11.8,7.1,18.8
2005/2/5,15:15:00,19.8,41.9,11.8,7.2,18.8
2005/2/5,15:30:00,19.8,41.7,11.8,7.4,18.8
2005/2/5,15:45:00,19.8,41.6,11.8,7.5,18.8
2005/2/5,16:00:00,19.8,41.4,11.8,4.4,18.7
2005/2/5,16:15:00,19.9,41.3,11.8,4.6,19
2005/2/5,16:30:00,19.8,41.5,11.8,4.6,19
2005/2/5,16:45:00,19.8,41.4,11.8,4.7,19
2005/2/5,17:00:00,19.8,41.6,11.8,4.8,18.9
2005/2/5,17:15:00,19.9,41.3,11.7,4.9,18.8
2005/2/5,17:30:00,19.8,41.2,11.7,5.1,18.7
2005/2/5,17:45:00,19.9,41.3,11.7,5.2,18.6
2005/2/5,18:00:00,19.9,41.4,11.7,5.4,18.6
2005/2/5,18:15:00,19.8,41.6,11.7,5.6,18.6
2005/2/5,18:30:00,19.8,41.7,11.7,5.7,18.6
2005/2/5,18:45:00,19.7,41.7,11.7,5.9,18.6
2005/2/5,19:00:00,19.7,41.7,11.7,6,18.5
2005/2/5,19:15:00,19.7,41.4,11.6,6.2,18.5
2005/2/5,19:30:00,19.6,41.5,11.6,6.3,18.4
2005/2/5,19:45:00,19.6,41.2,11.5,6.5,18.4
2005/2/5,20:00:00,19.5,41.5,11.6,6.6,18.3
2005/2/5,20:15:00,19.3,41.2,11.6,5.8,19.7
2005/2/5,20:30:00,19.3,41.3,11.5,4.7,21
2005/2/5,20:45:00,19.4,41.2,11.4,4.8,20.3
2005/2/5,21:00:00,19.3,41.4,11.4,4.9,19.8
2005/2/5,21:15:00,19.3,42,11.4,5,19.5
2005/2/5,21:30:00,19.2,41.8,11.4,5.8,19.1
2005/2/5,21:45:00,19,42,11.4,5.9,18.6
2005/2/5,22:00:00,19,41.8,11.3,6,18.3
2005/2/5,22:15:00,19,42.7,11.3,6.1,18.1
2005/2/5,22:30:00,19,43.2,11.3,6.2,17.9
2005/2/5,22:45:00,19,43.5,11.2,6.3,17.8
2005/2/5,23:00:00,19,42.9,11.3,5.4,17.8
2005/2/5,23:15:00,18.8,42.4,11.3,5.7,17.8
2005/2/5,23:30:00,18.8,42,11.2,5.8,17.8
2005/2/5,23:45:00,18.7,41.8,11.2,5.9,17.8
2005/2/6,0:00:00,18.7,41.6,11.2,6,17.6
2005/2/6,0:15:00,18.6,42.1,11.1,6.2,17.6
2005/2/6,0:30:00,18.5,45.4,11.1,6.3,17.5
2005/2/6,0:45:00,18.4,46.8,11.1,6.4,17.4
2005/2/6,1:00:00,18.4,48.3,11.1,6.5,17.4
2005/2/6,1:15:00,18.3,49.2,11.1,6.7,17.4
2005/2/6,1:30:00,18.3,49.7,11,6.8,17.4
2005/2/6,1:45:00,18.3,50.1,11,6.9,17.4
2005/2/6,2:00:00,18.2,50,11,7,17.4
2005/2/6,2:15:00,18.1,50.1,11,7.2,17.3
2005/2/6,2:30:00,18,50.1,10.9,7.3,17.2
2005/2/6,2:45:00,18,50,10.9,7.4,17.2
2005/2/6,3:00:00,18,49.8,10.9,7.5,17.1
2005/2/6,3:15:00,18,49.4,10.9,7.6,17
2005/2/6,3:30:00,17.9,48.8,10.9,7.8,16.9
2005/2/6,3:45:00,17.9,48.5,10.8,7.8,16.9
2005/2/6,4:00:00,17.9,48.1,10.8,8,16.8
2005/2/6,4:15:00,18,47.6,10.8,8.1,16.8
2005/2/6,4:30:00,18,47.2,10.8,8.2,16.8
2005/2/6,4:45:00,18,46.8,10.8,8.3,16.8
2005/2/6,5:00:00,18,46.4,10.8,8.4,16.8
2005/2/6,5:15:00,18.1,45.9,10.8,8.5,16.9
2005/2/6,5:30:00,18.2,45.3,10.8,8.6,16.9
2005/2/6,5:45:00,18.2,45,10.8,8.7,16.9
2005/2/6,6:00:00,18.3,44.5,10.8,8.8,17
2005/2/6,6:15:00,18.4,44.1,10.8,8.9,17.1
2005/2/6,6:30:00,18.5,43.6,10.8,9,17.1
2005/2/6,6:45:00,18.6,43.1,10.8,6.6,17.2
2005/2/6,7:00:00,18.8,42.7,10.8,6.8,17.3
2005/2/6,7:15:00,18.9,42.5,10.8,7,17.4
2005/2/6,7:30:00,19,42.1,10.8,7.1,17.5
2005/2/6,7:45:00,19.1,41.9,10.8,7.2,17.5
2005/2/6,8:00:00,19.3,41.5,10.9,7.3,17.7
2005/2/6,8:15:00,19.3,41.5,10.9,7.5,17.8
2005/2/6,8:30:00,19.4,41.5,10.9,4.4,17.8
2005/2/6,8:45:00,19.5,41.6,11,4.6,17.9
2005/2/6,9:00:00,19.6,41.7,11,4.6,18.1
2005/2/6,9:15:00,19.6,41.6,11,4.7,18.2
2005/2/6,9:30:00,19.6,41.7,11.1,4.8,18.3
2005/2/6,9:45:00,19.6,41.9,11.1,4.9,18.3
2005/2/6,10:00:00,19.7,41.8,11.1,5.1,18.3
2005/2/6,10:15:00,19.7,41.8,11.2,5.3,18.3
2005/2/6,10:30:00,20.1,40.9,11.2,5.4,18.4
2005/2/6,10:45:00,19.9,41.5,11.3,5.6,18.5
2005/2/6,11:00:00,20,41.2,11.3,5.8,18.5
2005/2/6,11:15:00,19.9,40.9,11.4,4.8,18.5
2005/2/6,11:30:00,19.9,40.6,11.4,4.9,18.5
2005/2/6,11:45:00,20,40.3,11.4,5.1,18.6
2005/2/6,12:00:00,20,40.2,11.5,5.2,18.6
2005/2/6,12:15:00,20,40.1,11.5,5.3,18.6
2005/2/6,12:30:00,20,40,11.5,5.5,18.6
2005/2/6,12:45:00,20,39.9,11.5,5.6,18.6
2005/2/6,13:00:00,20,39.8,11.6,5.8,18.6
2005/2/6,13:15:00,19.9,39.8,11.6,5.9,18.6
2005/2/6,13:30:00,19.9,39.8,11.6,6.1,18.6
2005/2/6,13:45:00,19.9,39.6,11.6,6.3,18.6
2005/2/6,14:00:00,19.9,39.7,11.7,6.4,18.6
2005/2/6,14:15:00,19.8,39.7,11.7,6.5,18.5
2005/2/6,14:30:00,19.9,39.5,11.7,6.7,18.5
2005/2/6,14:45:00,19.8,39.6,11.7,6.9,18.5
2005/2/6,15:00:00,19.8,39.7,11.7,7,18.4
2005/2/6,15:15:00,19.8,39.6,11.8,7.2,18.4
2005/2/6,15:30:00,19.7,39.6,11.8,7.3,18.4
2005/2/6,15:45:00,19.6,39.7,11.8,7.4,18.3
2005/2/6,16:00:00,19.7,39.7,11.8,7.6,18.3
2005/2/6,16:15:00,19.6,39.7,11.8,7.7,18.3
2005/2/6,16:30:00,19.6,39.7,11.8,7.8,18.3
2005/2/6,16:45:00,19.7,39.7,11.8,7.9,18.3
2005/2/6,17:00:00,19.6,39.9,11.8,8.1,18.2
2005/2/6,17:15:00,19.6,40,11.8,8.2,18.2
2005/2/6,17:30:00,19.6,40.5,11.8,8.3,18.2
2005/2/6,17:45:00,19.6,40.3,11.8,8.4,18.1
2005/2/6,18:00:00,19.5,40.4,11.8,7.6,18.1
2005/2/6,18:15:00,19.5,40.3,11.8,7.7,18.1
2005/2/6,18:30:00,19.6,40.6,11.8,7.8,18
2005/2/6,18:45:00,19.6,40.7,11.8,7.9,18
2005/2/6,19:00:00,19.5,40.5,11.7,8,17.9
2005/2/6,19:15:00,19.5,40.4,11.7,8.1,17.9
2005/2/6,19:30:00,19.5,40.5,11.7,8.2,18.2
2005/2/6,19:45:00,19.5,40.5,11.8,8.3,18.2
2005/2/6,20:00:00,19.5,41.5,11.8,8.2,18.2
2005/2/6,20:15:00,19.4,42.2,11.8,6.7,18.2
2005/2/6,20:30:00,19.4,42.7,11.7,6.9,18.1
2005/2/6,20:45:00,19.4,43,11.7,7,18.1
2005/2/6,21:00:00,19.3,42.9,11.7,7.1,18
2005/2/6,21:15:00,19.2,43.2,11.7,7.2,18
2005/2/6,21:30:00,19.1,43.4,11.7,7.4,17.9
2005/2/6,21:45:00,19.1,43.4,11.7,7.5,17.8
2005/2/6,22:00:00,19.1,43.2,11.7,7.6,17.8
2005/2/6,22:15:00,19,43.3,11.7,7.7,17.8
2005/2/6,22:30:00,19,43.1,11.7,7.8,17.7
2005/2/6,22:45:00,18.9,43,11.7,7.9,17.7
2005/2/6,23:00:00,18.9,42.9,11.7,8,17.7
2005/2/6,23:15:00,18.9,42.6,11.7,8.1,17.7